GW2918 Weather Reports


time (UTC)temp
C
wind
direction
speed
KPH
gust
KPH
rain 1hr
cm
rain 24hr
cm
rain mn
cm
humidity
%
barometer
mb
20260502130704 5 12 6.4 8.0 0.00 0.03 0.03 71 1014.0
20260502123653 5 37 3.2 14.5 0.00 0.03 0.03 78 1014.0
20260502122652 5 49 0.0 8.0 0.00 0.03 0.03 78 1013.8
20260502121647 4 22 1.6 9.7 0.00 0.03 0.03 83 1013.8
20260502120646 4 16 3.2 14.5 0.00 0.03 0.03 82 1014.0
20260502115641 3 57 4.8 8.0 0.00 0.03 0.03 82 1013.8
20260502114639 3 42 3.2 6.4 0.00 0.03 0.03 84 1013.7
20260502113634 3 56 6.4 9.7 0.00 0.03 0.03 85 1013.7
20260502112630 3 51 3.2 9.7 0.00 0.03 0.03 84 1013.8
20260502111630 3 54 11.3 12.9 0.00 0.03 0.03 83 1013.8
20260502110625 3 73 6.4 9.7 0.00 0.03 0.03 89 1013.6
20260502105620 3 88 8.0 9.7 0.00 0.03 0.03 91 1013.6
20260502104620 1 70 8.0 8.0 0.00 0.03 0.03 93 1013.3
20260502103615 1 64 6.4 9.7 0.00 0.03 0.03 95 1013.4
20260502102615 1 54 6.4 14.5 0.00 0.03 0.03 96 1013.1
20260502101615 1 54 11.3 14.5 0.00 0.03 0.03 98 1013.5
20260502100612 1 70 6.4 9.7 0.00 0.03 0.03 98 1013.3
20260502090557 2 64 6.4 9.7 0.00 0.03 0.03 97 1012.6
20260502071533 2 18 6.4 9.7 0.00 0.03 0.03 95 1012.6
20260502070529 2 312 6.4 24.1 0.05 0.03 0.03 96 1012.4
20260502065525 3 348 6.4 17.7 0.05 0.00 0.00 99 1012.1
20260502064521 3 48 4.8 9.7 0.00 0.00 0.00 99 1011.9
20260502063521 3 252 3.2 6.4 0.00 0.00 0.00 99 1012.3
20260502062521 3 62 8.0 9.7 0.00 0.00 0.00 99 1011.8
20260502061517 3 57 4.8 9.7 0.00 0.00 0.00 99 1012.1
20260502060515 3 22 9.7 9.7 0.00 0.00 0.00 99 1012.0
20260502055515 3 36 9.7 11.3 0.00 0.00 0.00 99 1011.9
20260502054513 3 65 6.4 9.7 0.00 0.00 0.00 99 1012.1
20260502053512 3 44 4.8 9.7 0.00 0.00 0.00 99 1012.4
20260502052508 4 21 3.2 8.0 0.00 0.00 0.00 99 1012.4
20260502051504 4 246 3.2 4.8 0.00 0.00 0.00 99 1012.3
20260502050503 5 53 4.8 6.4 0.00 0.00 0.00 99 1012.0
20260502045503 5 61 4.8 8.0 0.00 0.00 0.00 99 1012.0
20260502044502 5 60 3.2 6.4 0.00 0.00 0.00 99 1012.3
20260502043456 5 81 3.2 3.2 0.00 0.00 0.00 99 1012.1
20260502042453 4 91 3.2 4.8 0.00 0.00 0.00 99 1012.1
20260502041448 4 91 0.0 4.8 0.00 0.00 0.00 99 1012.0
20260502040447 5 88 3.2 4.8 0.00 0.00 0.00 99 1012.0
20260502035445 5 61 3.2 4.8 0.00 0.38 0.38 99 1012.0
20260502034442 5 74 3.2 4.8 0.00 0.38 0.38 99 1012.1
20260502033443 5 80 3.2 4.8 0.00 0.38 0.38 99 1011.9
20260502032441 5 63 1.6 3.2 0.00 0.38 0.38 99 1011.9
20260502031437 5 174 0.0 3.2 0.05 0.38 0.38 99 1012.1
20260502030433 5 7 3.2 4.8 0.00 0.38 0.38 99 1011.8
20260502025433 5 49 0.0 3.2 0.00 0.38 0.38 99 1011.9
20260502024429 5 19 1.6 3.2 0.05 0.38 0.38 99 1012.1
20260502023424 5 170 3.2 4.8 0.00 0.38 0.38 99 1012.1
20260502022423 5 222 3.2 4.8 0.05 0.38 0.38 99 1012.4
20260502021423 5 70 0.0 3.2 0.00 0.36 0.36 99 1012.3
20260502020419 5 222 3.2 4.8 0.05 0.36 0.36 99 1012.3
20260502015418 5 120 0.0 3.2 0.05 0.33 0.33 99 1012.3
20260502014418 5 22 0.0 3.2 0.00 0.33 0.33 99 1012.3
20260502013415 5 66 1.6 3.2 0.05 0.33 0.33 99 1012.0
20260502012411 5 22 3.2 3.2 0.00 0.33 0.33 99 1012.1
20260502011409 5 64 0.0 3.2 0.00 0.33 0.33 99 1011.8
20260502010409 5 44 0.0 3.2 0.00 0.33 0.33 99 1011.7
20260502005404 5 39 0.0 3.2 0.00 0.33 0.33 99 1011.7
20260502004403 5 12 1.6 3.2 0.00 0.33 0.33 99 1011.8
20260502003357 5 343 1.6 3.2 0.05 0.33 0.33 99 1011.8
20260502002357 5 43 1.6 3.2 0.00 0.30 0.30 99 1011.7
20260502001357 5 45 0.0 3.2 0.05 0.30 0.30 99 1011.6
20260502000354 5 53 0.0 3.2 0.18 0.30 0.30 99 1011.7
20260501235350 5 84 0.0 3.2 0.13 0.28 0.28 99 1011.5
20260501234349 5 47 0.0 3.2 0.00 0.25 0.25 99 1011.8
20260501233344 5 77 3.2 4.8 0.13 0.25 0.25 99 1011.6
20260501232343 5 33 1.6 3.2 0.13 0.23 0.23 99 1011.6
20260501231338 6 311 0.0 1.6 0.05 0.20 0.20 99 1011.7
20260501230335 6 342 0.0 3.2 0.05 0.20 0.20 99 1011.6
20260501225335 6 74 1.6 3.2 0.13 0.18 0.18 98 1011.7
20260501224334 6 125 3.2 4.8 0.18 0.18 0.18 98 1011.7
20260501223332 6 185 1.6 3.2 0.18 0.15 0.15 97 1011.7
20260501222332 6 34 3.2 6.4 0.13 0.10 0.10 96 1011.8
20260501221331 6 128 0.0 1.6 0.13 0.10 0.10 94 1011.7
20260501220326 6 157 3.2 3.2 0.05 0.05 0.05 92 1011.7
20260501215325 7 193 1.6 3.2 0.05 0.05 0.05 90 1011.5
20260501214322 7 173 0.0 4.8 0.05 0.05 0.05 89 1011.6
20260501213320 7 238 1.6 4.8 0.00 0.03 0.03 89 1011.4
20260501212319 7 185 1.6 3.2 0.05 0.03 0.03 88 1011.7
20260501211319 7 319 3.2 6.4 0.05 0.03 0.03 83 1011.5
20260501210319 7 341 4.8 9.7 0.00 0.00 0.00 81 1011.4
20260501205319 8 272 4.8 4.8 0.00 0.00 0.00 81 1011.3
20260501204318 8 163 1.6 3.2 0.00 0.00 0.00 83 1011.2
20260501203317 7 1 3.2 9.7 0.00 0.00 0.00 83 1011.5
20260501202316 8 185 3.2 8.0 0.05 0.00 0.00 79 1011.6
20260501201316 8 61 3.2 8.0 0.00 0.00 0.00 77 1011.8
20260501200315 8 37 1.6 4.8 0.00 0.00 0.00 75 1011.5
20260501195314 8 208 4.8 8.0 0.00 0.00 0.00 73 1011.5
20260501194313 8 241 8.0 9.7 0.00 0.00 0.00 69 1011.7
20260501193308 9 332 3.2 6.4 0.00 0.00 0.00 71 1011.5
20260501192308 9 280 6.4 8.0 0.00 0.00 0.00 67 1011.5
20260501191302 9 124 3.2 6.4 0.00 0.00 0.00 67 1011.4
20260501190300 10 173 0.0 11.3 0.00 0.00 0.00 61 1011.4
20260501185258 10 236 3.2 8.0 0.00 0.00 0.00 57 1011.4
20260501184255 10 283 6.4 11.3 0.00 0.00 0.00 53 1011.4
20260501183255 11 265 8.0 14.5 0.00 0.00 0.00 52 1011.3
20260501182254 11 335 12.9 14.5 0.00 0.00 0.00 51 1011.2
20260501181253 11 225 6.4 11.3 0.00 0.00 0.00 51 1011.2
20260501180252 11 295 3.2 8.0 0.00 0.00 0.00 52 1011.3
20260501175252 11 250 3.2 11.3 0.00 0.00 0.00 49 1011.4
20260501174252 11 201 3.2 8.0 0.00 0.00 0.00 51 1011.3
20260501173253 11 215 4.8 9.7 0.00 0.00 0.00 51 1011.1
20260501172250 11 244 4.8 6.4 0.00 0.00 0.00 53 1011.2
20260501171248 11 195 3.2 12.9 0.00 0.00 0.00 53 1011.5
20260501170248 12 234 3.2 8.0 0.00 0.00 0.00 52 1011.3
20260501165243 11 342 1.6 16.1 0.00 0.00 0.00 51 1011.5
20260501164243 11 297 8.0 9.7 0.00 0.00 0.00 49 1011.8
20260501163243 10 275 4.8 8.0 0.00 0.00 0.00 52 1011.9
20260501162240 11 339 3.2 8.0 0.00 0.00 0.00 50 1012.0
20260501161241 10 212 9.7 16.1 0.00 0.00 0.00 47 1012.1
20260501160240 11 295 8.0 19.3 0.00 0.00 0.00 45 1012.1
20260501155240 11 187 4.8 14.5 0.00 0.00 0.00 47 1012.4
20260501154240 11 125 9.7 16.1 0.00 0.00 0.00 49 1012.4
20260501153235 10 77 6.4 14.5 0.00 0.00 0.00 52 1012.6
20260501152233 10 195 3.2 16.1 0.00 0.00 0.00 51 1012.6
20260501151233 9 66 12.9 17.7 0.00 0.00 0.00 56 1012.8
20260501150232 10 22 6.4 9.7 0.00 0.00 0.00 57 1012.8
20260501145226 10 278 8.0 12.9 0.00 0.00 0.00 59 1012.7